12FD ZSSS-ZSSS

Flight info

Callsign 12FD
Flight time 0h 10m
Altitude 1000
Route LOCAL
Aircraft S22T/L-SDGRY/S

Departure

Time 2026-04-28 15:15
Airport Shanghai Hongqiao International Airport (ZSSS)

Arrival

Time 2026-04-28 15:25
Airport Shanghai Hongqiao International Airport (ZSSS)
Time Latitude Longitude Altitude Speed Heading
2026-04-28 15:00 31.18717 121.32854 14 ft 0 kts 267°
2026-04-28 15:09 31.18718 121.32879 14 ft 4 kts 268°
2026-04-28 15:09 31.18719 121.32911 14 ft 4 kts 268°
2026-04-28 15:09 31.18720 121.32931 14 ft 4 kts 265°
2026-04-28 15:10 31.18731 121.32957 14 ft 1 kts 177°
2026-04-28 15:10 31.18734 121.32957 14 ft 0 kts 177°
2026-04-28 15:12 31.18725 121.32973 14 ft 6 kts 103°
2026-04-28 15:12 31.18708 121.33029 14 ft 10 kts 158°
2026-04-28 15:12 31.18619 121.33037 14 ft 16 kts 177°
2026-04-28 15:13 31.18506 121.33040 14 ft 11 kts 175°
2026-04-28 15:13 31.18417 121.33048 14 ft 15 kts 176°
2026-04-28 15:13 31.18339 121.33110 14 ft 17 kts 89°
2026-04-28 15:13 31.18344 121.33254 14 ft 18 kts 86°
2026-04-28 15:14 31.18428 121.33322 15 ft 8 kts 357°
2026-04-28 15:14 31.18458 121.33321 16 ft 24 kts 358°
2026-04-28 15:14 31.18873 121.33305 30 ft 83 kts 357°
2026-04-28 15:14 31.19484 121.33279 231 ft 89 kts 355°
2026-04-28 15:15 31.20104 121.33232 405 ft 89 kts 354°
2026-04-28 15:15 31.20720 121.33166 557 ft 87 kts 358°
2026-04-28 15:15 31.21318 121.33087 685 ft 86 kts 358°
2026-04-28 15:15 31.21857 121.32705 777 ft 104 kts 317°
2026-04-28 15:16 31.22065 121.31876 952 ft 112 kts 272°
2026-04-28 15:16 31.21863 121.30961 1019 ft 124 kts 243°
2026-04-28 15:16 31.21256 121.30234 1090 ft 130 kts 204°
2026-04-28 15:16 31.20378 121.30121 1178 ft 127 kts 173°
2026-04-28 15:17 31.19478 121.30146 1245 ft 130 kts 171°
2026-04-28 15:17 31.18571 121.30195 1307 ft 131 kts 172°
2026-04-28 15:17 31.17690 121.30223 1430 ft 118 kts 172°
2026-04-28 15:17 31.16903 121.30229 1511 ft 111 kts 173°
2026-04-28 15:18 31.16140 121.30221 1561 ft 109 kts 173°
2026-04-28 15:18 31.15386 121.30205 1606 ft 108 kts 173°
2026-04-28 15:18 31.14635 121.30189 1633 ft 109 kts 173°
2026-04-28 15:18 31.13864 121.30173 1636 ft 112 kts 173°
2026-04-28 15:19 31.13074 121.30145 1588 ft 116 kts 175°
2026-04-28 15:19 31.12273 121.30110 1483 ft 115 kts 174°
2026-04-28 15:19 31.11500 121.30103 1416 ft 110 kts 173°
2026-04-28 15:19 31.10742 121.30104 1337 ft 108 kts 174°
2026-04-28 15:20 31.10088 121.30336 1238 ft 93 kts 119°
2026-04-28 15:20 31.09958 121.31003 1202 ft 83 kts 89°
2026-04-28 15:20 31.09953 121.31672 1163 ft 82 kts 85°
2026-04-28 15:20 31.09967 121.32339 1114 ft 80 kts 82°
2026-04-28 15:21 31.09970 121.32978 1070 ft 80 kts 85°
2026-04-28 15:21 31.10042 121.33622 1004 ft 82 kts 53°
2026-04-28 15:21 31.10635 121.33666 853 ft 92 kts 353°
2026-04-28 15:21 31.11231 121.33599 846 ft 82 kts
2026-04-28 15:22 31.11746 121.33593 846 ft 72 kts
2026-04-28 15:22 31.12260 121.33584 880 ft 76 kts
2026-04-28 15:22 31.12791 121.33553 921 ft 76 kts
2026-04-28 15:22 31.13325 121.33541 951 ft 78 kts
2026-04-28 15:23 31.13866 121.33534 962 ft 78 kts
2026-04-28 15:23 31.14403 121.33520 963 ft 79 kts 359°
2026-04-28 15:23 31.14947 121.33483 857 ft 78 kts
2026-04-28 15:23 31.15483 121.33457 713 ft 75 kts
2026-04-28 15:24 31.16005 121.33434 568 ft 75 kts
2026-04-28 15:24 31.16525 121.33416 502 ft 76 kts 360°
2026-04-28 15:24 31.17066 121.33390 398 ft 79 kts 355°
2026-04-28 15:24 31.17616 121.33359 288 ft 81 kts 357°
2026-04-28 15:25 31.18175 121.33334 162 ft 79 kts 356°
2026-04-28 15:25 31.18718 121.33309 46 ft 76 kts 356°
2026-04-28 15:25 31.19214 121.33283 13 ft 64 kts 352°
2026-04-28 15:25 31.19493 121.33263 12 ft 26 kts 357°
2026-04-28 15:26 31.19669 121.33254 13 ft 27 kts 356°
2026-04-28 15:26 31.19817 121.33229 14 ft 11 kts 281°
2026-04-28 15:26 31.19815 121.33129 14 ft 6 kts 266°
2026-04-28 15:26 31.19814 121.33128 14 ft 0 kts 263°
2026-04-28 15:27 31.19811 121.33085 14 ft 7 kts 257°
2026-04-28 15:27 31.19752 121.33059 14 ft 11 kts 169°
2026-04-28 15:27 31.19655 121.33064 14 ft 17 kts 179°
2026-04-28 15:28 31.19526 121.33071 14 ft 20 kts 178°
2026-04-28 15:28 31.19393 121.33077 13 ft 17 kts 177°
2026-04-28 15:28 31.19266 121.33084 14 ft 11 kts 186°
2026-04-28 15:28 31.19224 121.33087 14 ft 9 kts 175°
2026-04-28 15:29 31.19145 121.33091 14 ft 13 kts 176°
2026-04-28 15:29 31.19038 121.33097 14 ft 17 kts 179°
2026-04-28 15:29 31.18935 121.33098 14 ft 9 kts 204°
2026-04-28 15:29 31.18911 121.33040 14 ft 6 kts 233°
2026-04-28 15:30 31.18904 121.33031 14 ft 0 kts 227°
2026-04-28 15:30 31.18881 121.32991 14 ft 12 kts 255°
2026-04-28 15:30 31.18878 121.32910 14 ft 0 kts 270°